2017,09,30,00,00,00,118.8,,,,,,,,,,,,,,
2017,09,30,00,01,00,125.5,,,,,,,,,,,,,,
2017,09,30,00,02,00,132.0,,,,,,,,,,,,,,
2017,09,30,00,03,00,128.6,,,,,,,,,,,,,,
2017,09,30,00,04,00,122.3,,,,,,,,,,,,,,
2017,09,30,00,05,00,139.0,,,,,,,,,,,,,,
2017,09,30,00,06,00,132.1,,,,,,,,,,,,,,
2017,09,30,00,07,00,123.7,,,,,,,,,,,,,,
2017,09,30,00,08,00,123.5,,,,,,,,,,,,,,
2017,09,30,00,09,00,127.2,,,,,,,,,,,,,,
2017,09,30,00,10,00,113.1,,,,,,,,,,,,,,
2017,09,30,00,11,00,95.0,,,,,,,,,,,,,,
2017,09,30,00,12,00,108.3,,,,,,,,,,,,,,
2017,09,30,00,13,00,121.7,,,,,,,,,,,,,,
2017,09,30,00,14,00,122.1,,,,,,,,,,,,,,
2017,09,30,00,15,00,122.1,,,,,,,,,,,,,,
2017,09,30,00,16,00,120.9,,,,,,,,,,,,,,
2017,09,30,00,17,00,114.3,,,,,,,,,,,,,,
2017,09,30,00,18,00,120.0,,,,,,,,,,,,,,
2017,09,30,00,19,00,121.3,,,,,,,,,,,,,,
2017,09,30,00,20,00,118.2,,,,,,,,,,,,,,
2017,09,30,00,21,00,113.9,,,,,,,,,,,,,,
2017,09,30,00,22,00,113.9,,,,,,,,,,,,,,
2017,09,30,00,23,00,113.1,,,,,,,,,,,,,,
2017,09,30,00,24,00,121.6,,,,,,,,,,,,,,
2017,09,30,00,25,00,123.4,,,,,,,,,,,,,,
2017,09,30,00,26,00,128.9,,,,,,,,,,,,,,
2017,09,30,00,27,00,123.4,,,,,,,,,,,,,,
2017,09,30,00,28,00,122.7,,,,,,,,,,,,,,
2017,09,30,00,29,00,128.7,,,,,,,,,,,,,,
2017,09,30,00,30,00,132.4,,,,,,,,,,,,,,
2017,09,30,00,31,00,125.6,,,,,,,,,,,,,,
2017,09,30,00,32,00,129.2,,,,,,,,,,,,,,
2017,09,30,00,33,00,145.4,,,,,,,,,,,,,,
2017,09,30,00,34,00,145.9,,,,,,,,,,,,,,
2017,09,30,00,35,00,152.4,,,,,,,,,,,,,,
2017,09,30,00,36,00,149.2,,,,,,,,,,,,,,
2017,09,30,00,37,00,147.4,,,,,,,,,,,,,,
2017,09,30,00,38,00,129.7,,,,,,,,,,,,,,
2017,09,30,00,39,00,124.8,,,,,,,,,,,,,,
2017,09,30,00,40,00,123.3,,,,,,,,,,,,,,
2017,09,30,00,41,00,130.0,,,,,,,,,,,,,,
2017,09,30,00,42,00,124.9,,,,,,,,,,,,,,
2017,09,30,00,43,00,124.3,,,,,,,,,,,,,,
2017,09,30,00,44,00,133.1,,,,,,,,,,,,,,
2017,09,30,00,45,00,125.5,,,,,,,,,,,,,,
2017,09,30,00,46,00,124.1,,,,,,,,,,,,,,
2017,09,30,00,47,00,123.1,,,,,,,,,,,,,,
2017,09,30,00,48,00,124.4,,,,,,,,,,,,,,
2017,09,30,00,49,00,123.7,,,,,,,,,,,,,,
2017,09,30,00,50,00,123.3,,,,,,,,,,,,,,
2017,09,30,00,51,00,121.6,,,,,,,,,,,,,,
2017,09,30,00,52,00,123.2,,,,,,,,,,,,,,
2017,09,30,00,53,00,115.5,,,,,,,,,,,,,,
2017,09,30,00,54,00,116.6,,,,,,,,,,,,,,
2017,09,30,00,55,00,118.1,,,,,,,,,,,,,,
2017,09,30,00,56,00,120.9,,,,,,,,,,,,,,
2017,09,30,00,57,00,122.5,,,,,,,,,,,,,,
2017,09,30,00,58,00,127.1,,,,,,,,,,,,,,
2017,09,30,00,59,00,124.5,,,,,,,,,,,,,,
2017,09,30,01,00,00,123.4,,,,,,,,,,,,,,
2017,09,30,01,01,00,121.8,,,,,,,,,,,,,,
2017,09,30,01,02,00,121.1,,,,,,,,,,,,,,
2017,09,30,01,03,00,120.8,,,,,,,,,,,,,,
2017,09,30,01,04,00,120.5,,,,,,,,,,,,,,
2017,09,30,01,05,00,123.2,,,,,,,,,,,,,,
2017,09,30,01,06,00,125.6,,,,,,,,,,,,,,
2017,09,30,01,07,00,126.5,,,,,,,,,,,,,,
2017,09,30,01,08,00,133.5,,,,,,,,,,,,,,
2017,09,30,01,09,00,127.8,,,,,,,,,,,,,,
2017,09,30,01,10,00,134.5,,,,,,,,,,,,,,
2017,09,30,01,11,00,141.5,,,,,,,,,,,,,,
2017,09,30,01,12,00,141.3,,,,,,,,,,,,,,
2017,09,30,01,13,00,141.5,,,,,,,,,,,,,,
2017,09,30,01,14,00,128.7,,,,,,,,,,,,,,
2017,09,30,01,15,00,123.5,,,,,,,,,,,,,,
2017,09,30,01,16,00,122.6,,,,,,,,,,,,,,
2017,09,30,01,17,00,123.6,,,,,,,,,,,,,,
2017,09,30,01,18,00,125.0,,,,,,,,,,,,,,
2017,09,30,01,19,00,123.3,,,,,,,,,,,,,,
2017,09,30,01,20,00,124.7,,,,,,,,,,,,,,
2017,09,30,01,21,00,131.1,,,,,,,,,,,,,,
2017,09,30,01,22,00,144.9,,,,,,,,,,,,,,
2017,09,30,01,23,00,145.7,,,,,,,,,,,,,,
2017,09,30,01,24,00,157.6,,,,,,,,,,,,,,
2017,09,30,01,25,00,144.4,,,,,,,,,,,,,,
2017,09,30,01,26,00,141.7,,,,,,,,,,,,,,
2017,09,30,01,27,00,150.8,,,,,,,,,,,,,,
2017,09,30,01,28,00,155.5,,,,,,,,,,,,,,
2017,09,30,01,29,00,155.5,,,,,,,,,,,,,,
2017,09,30,01,30,00,151.0,,,,,,,,,,,,,,
2017,09,30,01,31,00,143.4,,,,,,,,,,,,,,
2017,09,30,01,32,00,147.7,,,,,,,,,,,,,,
2017,09,30,01,33,00,139.4,,,,,,,,,,,,,,
2017,09,30,01,34,00,138.3,,,,,,,,,,,,,,
2017,09,30,01,35,00,137.7,,,,,,,,,,,,,,
2017,09,30,01,36,00,140.7,,,,,,,,,,,,,,
2017,09,30,01,37,00,134.0,,,,,,,,,,,,,,
2017,09,30,01,38,00,144.6,,,,,,,,,,,,,,
2017,09,30,01,39,00,150.3,,,,,,,,,,,,,,
2017,09,30,01,40,00,143.2,,,,,,,,,,,,,,
2017,09,30,01,41,00,146.2,,,,,,,,,,,,,,
2017,09,30,01,42,00,143.2,,,,,,,,,,,,,,
2017,09,30,01,43,00,138.5,,,,,,,,,,,,,,
2017,09,30,01,44,00,141.9,,,,,,,,,,,,,,
2017,09,30,01,45,00,156.9,,,,,,,,,,,,,,
2017,09,30,01,46,00,161.6,,,,,,,,,,,,,,
2017,09,30,01,47,00,153.0,,,,,,,,,,,,,,
2017,09,30,01,48,00,149.7,,,,,,,,,,,,,,
2017,09,30,01,49,00,153.6,,,,,,,,,,,,,,
2017,09,30,01,50,00,158.4,,,,,,,,,,,,,,
2017,09,30,01,51,00,149.6,,,,,,,,,,,,,,
2017,09,30,01,52,00,146.2,,,,,,,,,,,,,,
2017,09,30,01,53,00,147.4,,,,,,,,,,,,,,
2017,09,30,01,54,00,154.8,,,,,,,,,,,,,,
2017,09,30,01,55,00,155.1,,,,,,,,,,,,,,
2017,09,30,01,56,00,141.7,,,,,,,,,,,,,,
2017,09,30,01,57,00,142.1,,,,,,,,,,,,,,
2017,09,30,01,58,00,132.7,,,,,,,,,,,,,,
2017,09,30,01,59,00,140.3,,,,,,,,,,,,,,
2017,09,30,02,00,00,143.2,,,,,,,,,,,,,,
2017,09,30,02,01,00,140.3,,,,,,,,,,,,,,
2017,09,30,02,02,00,130.9,,,,,,,,,,,,,,
2017,09,30,02,03,00,129.6,,,,,,,,,,,,,,
2017,09,30,02,04,00,130.7,,,,,,,,,,,,,,
2017,09,30,02,05,00,135.9,,,,,,,,,,,,,,
2017,09,30,02,06,00,131.6,,,,,,,,,,,,,,
2017,09,30,02,07,00,138.6,,,,,,,,,,,,,,
2017,09,30,02,08,00,133.1,,,,,,,,,,,,,,
2017,09,30,02,09,00,141.7,,,,,,,,,,,,,,
2017,09,30,02,10,00,129.1,,,,,,,,,,,,,,
2017,09,30,02,11,00,124.0,,,,,,,,,,,,,,
2017,09,30,02,12,00,124.3,,,,,,,,,,,,,,
2017,09,30,02,13,00,123.9,,,,,,,,,,,,,,
2017,09,30,02,14,00,125.7,,,,,,,,,,,,,,
2017,09,30,02,15,00,125.6,,,,,,,,,,,,,,
2017,09,30,02,16,00,137.3,,,,,,,,,,,,,,
2017,09,30,02,17,00,136.1,,,,,,,,,,,,,,
2017,09,30,02,18,00,123.4,,,,,,,,,,,,,,
2017,09,30,02,19,00,128.9,,,,,,,,,,,,,,
2017,09,30,02,20,00,130.6,,,,,,,,,,,,,,
2017,09,30,02,21,00,131.5,,,,,,,,,,,,,,
2017,09,30,02,22,00,139.7,,,,,,,,,,,,,,
2017,09,30,02,23,00,144.2,,,,,,,,,,,,,,
2017,09,30,02,24,00,138.4,,,,,,,,,,,,,,
2017,09,30,02,25,00,126.5,,,,,,,,,,,,,,
2017,09,30,02,26,00,134.2,,,,,,,,,,,,,,
2017,09,30,02,27,00,129.3,,,,,,,,,,,,,,
2017,09,30,02,28,00,123.4,,,,,,,,,,,,,,
2017,09,30,02,29,00,124.1,,,,,,,,,,,,,,
2017,09,30,02,30,00,126.2,,,,,,,,,,,,,,
2017,09,30,02,31,00,129.9,,,,,,,,,,,,,,
2017,09,30,02,32,00,136.8,,,,,,,,,,,,,,
2017,09,30,02,33,00,124.8,,,,,,,,,,,,,,
2017,09,30,02,34,00,124.4,,,,,,,,,,,,,,
2017,09,30,02,35,00,125.8,,,,,,,,,,,,,,
2017,09,30,02,36,00,131.4,,,,,,,,,,,,,,
2017,09,30,02,37,00,128.1,,,,,,,,,,,,,,
2017,09,30,02,38,00,125.0,,,,,,,,,,,,,,
2017,09,30,02,39,00,123.4,,,,,,,,,,,,,,
2017,09,30,02,40,00,124.3,,,,,,,,,,,,,,
2017,09,30,02,41,00,124.9,,,,,,,,,,,,,,
2017,09,30,02,42,00,123.1,,,,,,,,,,,,,,
2017,09,30,02,43,00,124.6,,,,,,,,,,,,,,
2017,09,30,02,44,00,123.5,,,,,,,,,,,,,,
2017,09,30,02,45,00,123.3,,,,,,,,,,,,,,
2017,09,30,02,46,00,126.8,,,,,,,,,,,,,,
2017,09,30,02,47,00,126.1,,,,,,,,,,,,,,
2017,09,30,02,48,00,132.6,,,,,,,,,,,,,,
2017,09,30,02,49,00,125.3,,,,,,,,,,,,,,
2017,09,30,02,50,00,133.2,,,,,,,,,,,,,,
2017,09,30,02,51,00,125.8,,,,,,,,,,,,,,
2017,09,30,02,52,00,118.5,,,,,,,,,,,,,,
2017,09,30,02,53,00,121.1,,,,,,,,,,,,,,
2017,09,30,02,54,00,125.2,,,,,,,,,,,,,,
2017,09,30,02,55,00,123.3,,,,,,,,,,,,,,
2017,09,30,02,56,00,121.5,,,,,,,,,,,,,,
2017,09,30,02,57,00,121.4,,,,,,,,,,,,,,
2017,09,30,02,58,00,124.1,,,,,,,,,,,,,,
2017,09,30,02,59,00,123.1,,,,,,,,,,,,,,
2017,09,30,03,00,00,119.4,,,,,,,,,,,,,,
2017,09,30,03,01,00,118.0,,,,,,,,,,,,,,
2017,09,30,03,02,00,121.2,,,,,,,,,,,,,,
2017,09,30,03,03,00,129.2,,,,,,,,,,,,,,
2017,09,30,03,04,00,124.3,,,,,,,,,,,,,,
2017,09,30,03,05,00,123.2,,,,,,,,,,,,,,
2017,09,30,03,06,00,128.1,,,,,,,,,,,,,,
2017,09,30,03,07,00,124.2,,,,,,,,,,,,,,
2017,09,30,03,08,00,126.9,,,,,,,,,,,,,,
2017,09,30,03,09,00,129.0,,,,,,,,,,,,,,
2017,09,30,03,10,00,123.3,,,,,,,,,,,,,,
2017,09,30,03,11,00,126.0,,,,,,,,,,,,,,
2017,09,30,03,12,00,129.1,,,,,,,,,,,,,,
2017,09,30,03,13,00,144.4,,,,,,,,,,,,,,
2017,09,30,03,14,00,153.8,,,,,,,,,,,,,,
2017,09,30,03,15,00,151.5,,,,,,,,,,,,,,
2017,09,30,03,16,00,150.4,,,,,,,,,,,,,,
2017,09,30,03,17,00,143.3,,,,,,,,,,,,,,
2017,09,30,03,18,00,138.7,,,,,,,,,,,,,,
2017,09,30,03,19,00,130.6,,,,,,,,,,,,,,
2017,09,30,03,20,00,135.8,,,,,,,,,,,,,,
2017,09,30,03,21,00,142.0,,,,,,,,,,,,,,
2017,09,30,03,22,00,138.1,,,,,,,,,,,,,,
2017,09,30,03,23,00,137.5,,,,,,,,,,,,,,
2017,09,30,03,24,00,143.1,,,,,,,,,,,,,,
2017,09,30,03,25,00,134.1,,,,,,,,,,,,,,
2017,09,30,03,26,00,141.9,,,,,,,,,,,,,,
2017,09,30,03,27,00,148.7,,,,,,,,,,,,,,
2017,09,30,03,28,00,127.8,,,,,,,,,,,,,,
2017,09,30,03,29,00,142.6,,,,,,,,,,,,,,
2017,09,30,03,30,00,138.0,,,,,,,,,,,,,,
2017,09,30,03,31,00,132.7,,,,,,,,,,,,,,
2017,09,30,03,32,00,144.8,,,,,,,,,,,,,,
2017,09,30,03,33,00,138.7,,,,,,,,,,,,,,
2017,09,30,03,34,00,136.8,,,,,,,,,,,,,,
2017,09,30,03,35,00,148.9,,,,,,,,,,,,,,
2017,09,30,03,36,00,155.7,,,,,,,,,,,,,,
2017,09,30,03,37,00,136.9,,,,,,,,,,,,,,
2017,09,30,03,38,00,136.7,,,,,,,,,,,,,,
2017,09,30,03,39,00,154.9,,,,,,,,,,,,,,
2017,09,30,03,40,00,148.2,,,,,,,,,,,,,,
2017,09,30,03,41,00,143.4,,,,,,,,,,,,,,
2017,09,30,03,42,00,149.3,,,,,,,,,,,,,,
2017,09,30,03,43,00,127.4,,,,,,,,,,,,,,
2017,09,30,03,44,00,136.5,,,,,,,,,,,,,,
2017,09,30,03,45,00,124.7,,,,,,,,,,,,,,
2017,09,30,03,46,00,127.7,,,,,,,,,,,,,,
2017,09,30,03,47,00,123.6,,,,,,,,,,,,,,
2017,09,30,03,48,00,124.0,,,,,,,,,,,,,,
2017,09,30,03,49,00,128.9,,,,,,,,,,,,,,
2017,09,30,03,50,00,132.1,,,,,,,,,,,,,,
2017,09,30,03,51,00,126.8,,,,,,,,,,,,,,
2017,09,30,03,52,00,139.9,,,,,,,,,,,,,,
2017,09,30,03,53,00,140.9,,,,,,,,,,,,,,
2017,09,30,03,54,00,140.6,,,,,,,,,,,,,,
2017,09,30,03,55,00,151.4,,,,,,,,,,,,,,
2017,09,30,03,56,00,149.3,,,,,,,,,,,,,,
2017,09,30,03,57,00,151.0,,,,,,,,,,,,,,
2017,09,30,03,58,00,156.8,,,,,,,,,,,,,,
2017,09,30,03,59,00,146.6,,,,,,,,,,,,,,
2017,09,30,04,00,00,148.4,,,,,,,,,,,,,,
2017,09,30,04,01,00,153.8,,,,,,,,,,,,,,
2017,09,30,04,02,00,158.9,,,,,,,,,,,,,,
2017,09,30,04,03,00,141.3,,,,,,,,,,,,,,
2017,09,30,04,04,00,137.7,,,,,,,,,,,,,,
2017,09,30,04,05,00,135.7,,,,,,,,,,,,,,
2017,09,30,04,06,00,141.9,,,,,,,,,,,,,,
2017,09,30,04,07,00,142.3,,,,,,,,,,,,,,
2017,09,30,04,08,00,144.5,,,,,,,,,,,,,,
2017,09,30,04,09,00,123.9,,,,,,,,,,,,,,
2017,09,30,04,10,00,123.0,,,,,,,,,,,,,,
2017,09,30,04,11,00,123.7,,,,,,,,,,,,,,
2017,09,30,04,12,00,122.5,,,,,,,,,,,,,,
2017,09,30,04,13,00,119.2,,,,,,,,,,,,,,
2017,09,30,04,14,00,123.9,,,,,,,,,,,,,,
2017,09,30,04,15,00,121.0,,,,,,,,,,,,,,
2017,09,30,04,16,00,119.1,,,,,,,,,,,,,,
2017,09,30,04,17,00,122.8,,,,,,,,,,,,,,
2017,09,30,04,18,00,124.3,,,,,,,,,,,,,,
2017,09,30,04,19,00,139.1,,,,,,,,,,,,,,
2017,09,30,04,20,00,134.5,,,,,,,,,,,,,,
2017,09,30,04,21,00,128.4,,,,,,,,,,,,,,
2017,09,30,04,22,00,127.9,,,,,,,,,,,,,,
2017,09,30,04,23,00,130.0,,,,,,,,,,,,,,
2017,09,30,04,24,00,138.8,,,,,,,,,,,,,,
2017,09,30,04,25,00,139.9,,,,,,,,,,,,,,
2017,09,30,04,26,00,139.1,,,,,,,,,,,,,,
2017,09,30,04,27,00,150.3,,,,,,,,,,,,,,
2017,09,30,04,28,00,156.7,,,,,,,,,,,,,,
2017,09,30,04,29,00,160.0,,,,,,,,,,,,,,
2017,09,30,04,30,00,166.8,,,,,,,,,,,,,,
2017,09,30,04,31,00,159.0,,,,,,,,,,,,,,
2017,09,30,04,32,00,163.0,,,,,,,,,,,,,,
2017,09,30,04,33,00,154.1,,,,,,,,,,,,,,
2017,09,30,04,34,00,150.9,,,,,,,,,,,,,,
2017,09,30,04,35,00,145.0,,,,,,,,,,,,,,
2017,09,30,04,36,00,140.4,,,,,,,,,,,,,,
2017,09,30,04,37,00,154.9,,,,,,,,,,,,,,
2017,09,30,04,38,00,154.7,,,,,,,,,,,,,,
2017,09,30,04,39,00,145.6,,,,,,,,,,,,,,
2017,09,30,04,40,00,155.0,,,,,,,,,,,,,,
2017,09,30,04,41,00,139.0,,,,,,,,,,,,,,
2017,09,30,04,42,00,149.3,,,,,,,,,,,,,,
2017,09,30,04,43,00,145.8,,,,,,,,,,,,,,
2017,09,30,04,44,00,141.1,,,,,,,,,,,,,,
2017,09,30,04,45,00,148.4,,,,,,,,,,,,,,
2017,09,30,04,46,00,151.3,,,,,,,,,,,,,,
2017,09,30,04,47,00,165.6,,,,,,,,,,,,,,
2017,09,30,04,48,00,163.8,,,,,,,,,,,,,,
2017,09,30,04,49,00,160.4,,,,,,,,,,,,,,
2017,09,30,04,50,00,165.7,,,,,,,,,,,,,,
2017,09,30,04,51,00,174.3,,,,,,,,,,,,,,
2017,09,30,04,52,00,172.0,,,,,,,,,,,,,,
2017,09,30,04,53,00,177.9,,,,,,,,,,,,,,
2017,09,30,04,54,00,168.5,,,,,,,,,,,,,,
2017,09,30,04,55,00,188.8,,,,,,,,,,,,,,
2017,09,30,04,56,00,187.2,,,,,,,,,,,,,,
2017,09,30,04,57,00,175.9,,,,,,,,,,,,,,
2017,09,30,04,58,00,188.8,,,,,,,,,,,,,,
2017,09,30,04,59,00,175.9,,,,,,,,,,,,,,
2017,09,30,05,00,00,180.3,,,,,,,,,,,,,,
2017,09,30,05,01,00,184.3,,,,,,,,,,,,,,
2017,09,30,05,02,00,178.7,,,,,,,,,,,,,,
2017,09,30,05,03,00,201.6,,,,,,,,,,,,,,
2017,09,30,05,04,00,182.5,,,,,,,,,,,,,,
2017,09,30,05,05,00,169.9,,,,,,,,,,,,,,
2017,09,30,05,06,00,181.3,,,,,,,,,,,,,,
2017,09,30,05,07,00,175.7,,,,,,,,,,,,,,
2017,09,30,05,08,00,181.5,,,,,,,,,,,,,,
2017,09,30,05,09,00,170.5,,,,,,,,,,,,,,
2017,09,30,05,10,00,170.3,,,,,,,,,,,,,,
2017,09,30,05,11,00,179.9,,,,,,,,,,,,,,
2017,09,30,05,12,00,179.3,,,,,,,,,,,,,,
2017,09,30,05,13,00,186.6,,,,,,,,,,,,,,
2017,09,30,05,14,00,184.4,,,,,,,,,,,,,,
2017,09,30,05,15,00,202.5,,,,,,,,,,,,,,
2017,09,30,05,16,00,183.2,,,,,,,,,,,,,,
2017,09,30,05,17,00,169.8,,,,,,,,,,,,,,
2017,09,30,05,18,00,174.0,,,,,,,,,,,,,,
2017,09,30,05,19,00,200.1,,,,,,,,,,,,,,
2017,09,30,05,20,00,202.0,,,,,,,,,,,,,,
2017,09,30,05,21,00,199.5,,,,,,,,,,,,,,
2017,09,30,05,22,00,211.7,,,,,,,,,,,,,,
2017,09,30,05,23,00,222.3,,,,,,,,,,,,,,
2017,09,30,05,24,00,234.3,,,,,,,,,,,,,,
2017,09,30,05,25,00,240.8,,,,,,,,,,,,,,
2017,09,30,05,26,00,218.5,,,,,,,,,,,,,,
2017,09,30,05,27,00,206.2,,,,,,,,,,,,,,
2017,09,30,05,28,00,175.7,,,,,,,,,,,,,,
2017,09,30,05,29,00,170.2,,,,,,,,,,,,,,
2017,09,30,05,30,00,166.4,,,,,,,,,,,,,,
2017,09,30,05,31,00,172.2,,,,,,,,,,,,,,
2017,09,30,05,32,00,174.3,,,,,,,,,,,,,,
2017,09,30,05,33,00,174.3,,,,,,,,,,,,,,
2017,09,30,05,34,00,168.2,,,,,,,,,,,,,,
2017,09,30,05,35,00,177.2,,,,,,,,,,,,,,
2017,09,30,05,36,00,190.8,,,,,,,,,,,,,,
2017,09,30,05,37,00,206.6,,,,,,,,,,,,,,
2017,09,30,05,38,00,170.4,,,,,,,,,,,,,,
2017,09,30,05,39,00,194.8,,,,,,,,,,,,,,
2017,09,30,05,40,00,229.0,,,,,,,,,,,,,,
2017,09,30,05,41,00,198.3,,,,,,,,,,,,,,
2017,09,30,05,42,00,189.7,,,,,,,,,,,,,,
2017,09,30,05,43,00,188.7,,,,,,,,,,,,,,
2017,09,30,05,44,00,215.9,,,,,,,,,,,,,,
2017,09,30,05,45,00,242.7,,,,,,,,,,,,,,
2017,09,30,05,46,00,212.4,,,,,,,,,,,,,,
2017,09,30,05,47,00,227.5,,,,,,,,,,,,,,
2017,09,30,05,48,00,252.5,,,,,,,,,,,,,,
2017,09,30,05,49,00,276.1,,,,,,,,,,,,,,
2017,09,30,05,50,00,266.0,,,,,,,,,,,,,,
2017,09,30,05,51,00,255.3,,,,,,,,,,,,,,
2017,09,30,05,52,00,252.8,,,,,,,,,,,,,,
2017,09,30,05,53,00,251.7,,,,,,,,,,,,,,
2017,09,30,05,54,00,266.8,,,,,,,,,,,,,,
2017,09,30,05,55,00,271.5,,,,,,,,,,,,,,
2017,09,30,05,56,00,236.3,,,,,,,,,,,,,,
2017,09,30,05,57,00,238.0,,,,,,,,,,,,,,
2017,09,30,05,58,00,205.4,,,,,,,,,,,,,,
2017,09,30,05,59,00,186.8,,,,,,,,,,,,,,
2017,09,30,06,00,00,190.9,,,,,,,,,,,,,,
2017,09,30,06,01,00,194.9,,,,,,,,,,,,,,
2017,09,30,06,02,00,191.2,,,,,,,,,,,,,,
2017,09,30,06,03,00,182.6,,,,,,,,,,,,,,
2017,09,30,06,04,00,184.4,,,,,,,,,,,,,,
2017,09,30,06,05,00,169.6,,,,,,,,,,,,,,
2017,09,30,06,06,00,166.6,,,,,,,,,,,,,,
2017,09,30,06,07,00,165.9,,,,,,,,,,,,,,
2017,09,30,06,08,00,173.5,,,,,,,,,,,,,,
2017,09,30,06,09,00,203.3,,,,,,,,,,,,,,
2017,09,30,06,10,00,193.6,,,,,,,,,,,,,,
2017,09,30,06,11,00,191.7,,,,,,,,,,,,,,
2017,09,30,06,12,00,188.5,,,,,,,,,,,,,,
2017,09,30,06,13,00,202.8,,,,,,,,,,,,,,
2017,09,30,06,14,00,222.6,,,,,,,,,,,,,,
2017,09,30,06,15,00,203.2,,,,,,,,,,,,,,
2017,09,30,06,16,00,224.0,,,,,,,,,,,,,,
2017,09,30,06,17,00,240.8,,,,,,,,,,,,,,
2017,09,30,06,18,00,243.7,,,,,,,,,,,,,,
2017,09,30,06,19,00,248.7,,,,,,,,,,,,,,
2017,09,30,06,20,00,250.6,,,,,,,,,,,,,,
2017,09,30,06,21,00,274.6,,,,,,,,,,,,,,
2017,09,30,06,22,00,287.4,,,,,,,,,,,,,,
2017,09,30,06,23,00,281.4,,,,,,,,,,,,,,
2017,09,30,06,24,00,263.1,,,,,,,,,,,,,,
2017,09,30,06,25,00,258.8,,,,,,,,,,,,,,
2017,09,30,06,26,00,273.2,,,,,,,,,,,,,,
2017,09,30,06,27,00,291.3,,,,,,,,,,,,,,
2017,09,30,06,28,00,293.3,,,,,,,,,,,,,,
2017,09,30,06,29,00,278.2,,,,,,,,,,,,,,
2017,09,30,06,30,00,288.8,,,,,,,,,,,,,,
2017,09,30,06,31,00,305.7,,,,,,,,,,,,,,
2017,09,30,06,32,00,312.2,,,,,,,,,,,,,,
2017,09,30,06,33,00,311.9,,,,,,,,,,,,,,
2017,09,30,06,34,00,315.7,,,,,,,,,,,,,,
2017,09,30,06,35,00,306.4,,,,,,,,,,,,,,
2017,09,30,06,36,00,297.7,,,,,,,,,,,,,,
2017,09,30,06,37,00,304.2,,,,,,,,,,,,,,
2017,09,30,06,38,00,315.3,,,,,,,,,,,,,,
2017,09,30,06,39,00,300.8,,,,,,,,,,,,,,
2017,09,30,06,40,00,289.2,,,,,,,,,,,,,,
2017,09,30,06,41,00,280.0,,,,,,,,,,,,,,
2017,09,30,06,42,00,282.0,,,,,,,,,,,,,,
2017,09,30,06,43,00,279.3,,,,,,,,,,,,,,
2017,09,30,06,44,00,288.9,,,,,,,,,,,,,,
2017,09,30,06,45,00,291.5,,,,,,,,,,,,,,
2017,09,30,06,46,00,271.0,,,,,,,,,,,,,,
2017,09,30,06,47,00,297.4,,,,,,,,,,,,,,
2017,09,30,06,48,00,321.4,,,,,,,,,,,,,,
2017,09,30,06,49,00,310.7,,,,,,,,,,,,,,
2017,09,30,06,50,00,328.9,,,,,,,,,,,,,,
2017,09,30,06,51,00,308.2,,,,,,,,,,,,,,
2017,09,30,06,52,00,292.3,,,,,,,,,,,,,,
2017,09,30,06,53,00,287.9,,,,,,,,,,,,,,
2017,09,30,06,54,00,287.1,,,,,,,,,,,,,,
2017,09,30,06,55,00,289.0,,,,,,,,,,,,,,
2017,09,30,06,56,00,295.3,,,,,,,,,,,,,,
2017,09,30,06,57,00,290.7,,,,,,,,,,,,,,
2017,09,30,06,58,00,288.3,,,,,,,,,,,,,,
2017,09,30,06,59,00,300.8,,,,,,,,,,,,,,
2017,09,30,07,00,00,278.4,,,,,,,,,,,,,,
2017,09,30,07,01,00,267.9,,,,,,,,,,,,,,
2017,09,30,07,02,00,292.2,,,,,,,,,,,,,,
2017,09,30,07,03,00,310.2,,,,,,,,,,,,,,
2017,09,30,07,04,00,286.6,,,,,,,,,,,,,,
2017,09,30,07,05,00,254.2,,,,,,,,,,,,,,
2017,09,30,07,06,00,285.6,,,,,,,,,,,,,,
2017,09,30,07,07,00,330.6,,,,,,,,,,,,,,
2017,09,30,07,08,00,323.9,,,,,,,,,,,,,,
2017,09,30,07,09,00,298.4,,,,,,,,,,,,,,
2017,09,30,07,10,00,307.9,,,,,,,,,,,,,,
2017,09,30,07,11,00,319.8,,,,,,,,,,,,,,
2017,09,30,07,12,00,319.4,,,,,,,,,,,,,,
2017,09,30,07,13,00,325.2,,,,,,,,,,,,,,
2017,09,30,07,14,00,340.5,,,,,,,,,,,,,,
2017,09,30,07,15,00,339.9,,,,,,,,,,,,,,
2017,09,30,07,16,00,317.0,,,,,,,,,,,,,,
2017,09,30,07,17,00,312.8,,,,,,,,,,,,,,
2017,09,30,07,18,00,323.3,,,,,,,,,,,,,,
2017,09,30,07,19,00,324.7,,,,,,,,,,,,,,
2017,09,30,07,20,00,335.6,,,,,,,,,,,,,,
2017,09,30,07,21,00,332.4,,,,,,,,,,,,,,
2017,09,30,07,22,00,331.3,,,,,,,,,,,,,,
2017,09,30,07,23,00,336.7,,,,,,,,,,,,,,
2017,09,30,07,24,00,338.0,,,,,,,,,,,,,,
2017,09,30,07,25,00,337.9,,,,,,,,,,,,,,
2017,09,30,07,26,00,338.1,,,,,,,,,,,,,,
2017,09,30,07,27,00,326.4,,,,,,,,,,,,,,
2017,09,30,07,28,00,336.7,,,,,,,,,,,,,,
2017,09,30,07,29,00,344.2,,,,,,,,,,,,,,
2017,09,30,07,30,00,362.0,,,,,,,,,,,,,,
2017,09,30,07,31,00,344.3,,,,,,,,,,,,,,
2017,09,30,07,32,00,336.1,,,,,,,,,,,,,,
2017,09,30,07,33,00,301.2,,,,,,,,,,,,,,
2017,09,30,07,34,00,295.2,,,,,,,,,,,,,,
2017,09,30,07,35,00,309.1,,,,,,,,,,,,,,
2017,09,30,07,36,00,300.9,,,,,,,,,,,,,,
2017,09,30,07,37,00,301.1,,,,,,,,,,,,,,
2017,09,30,07,38,00,327.6,,,,,,,,,,,,,,
2017,09,30,07,39,00,363.0,,,,,,,,,,,,,,
2017,09,30,07,40,00,375.4,,,,,,,,,,,,,,
2017,09,30,07,41,00,372.3,,,,,,,,,,,,,,
2017,09,30,07,42,00,377.9,,,,,,,,,,,,,,
2017,09,30,07,43,00,311.1,,,,,,,,,,,,,,
2017,09,30,07,44,00,297.8,,,,,,,,,,,,,,
2017,09,30,07,45,00,282.8,,,,,,,,,,,,,,
2017,09,30,07,46,00,251.1,,,,,,,,,,,,,,
2017,09,30,07,47,00,249.4,,,,,,,,,,,,,,
2017,09,30,07,48,00,251.5,,,,,,,,,,,,,,
2017,09,30,07,49,00,250.0,,,,,,,,,,,,,,
2017,09,30,07,50,00,251.1,,,,,,,,,,,,,,
2017,09,30,07,51,00,252.8,,,,,,,,,,,,,,
2017,09,30,07,52,00,268.6,,,,,,,,,,,,,,
2017,09,30,07,53,00,301.3,,,,,,,,,,,,,,
2017,09,30,07,54,00,309.0,,,,,,,,,,,,,,
2017,09,30,07,55,00,284.5,,,,,,,,,,,,,,
2017,09,30,07,56,00,273.9,,,,,,,,,,,,,,
2017,09,30,07,57,00,262.2,,,,,,,,,,,,,,
2017,09,30,07,58,00,254.8,,,,,,,,,,,,,,
2017,09,30,07,59,00,275.8,,,,,,,,,,,,,,
2017,09,30,08,00,00,300.7,,,,,,,,,,,,,,
2017,09,30,08,01,00,325.4,,,,,,,,,,,,,,
2017,09,30,08,02,00,312.0,,,,,,,,,,,,,,
2017,09,30,08,03,00,303.8,,,,,,,,,,,,,,
2017,09,30,08,04,00,301.8,,,,,,,,,,,,,,
2017,09,30,08,05,00,324.3,,,,,,,,,,,,,,
2017,09,30,08,06,00,314.9,,,,,,,,,,,,,,
2017,09,30,08,07,00,288.5,,,,,,,,,,,,,,
2017,09,30,08,08,00,268.5,,,,,,,,,,,,,,
2017,09,30,08,09,00,299.1,,,,,,,,,,,,,,
2017,09,30,08,10,00,310.1,,,,,,,,,,,,,,
2017,09,30,08,11,00,322.1,,,,,,,,,,,,,,
2017,09,30,08,12,00,338.1,,,,,,,,,,,,,,
2017,09,30,08,13,00,339.8,,,,,,,,,,,,,,
2017,09,30,08,14,00,330.2,,,,,,,,,,,,,,
2017,09,30,08,15,00,309.5,,,,,,,,,,,,,,
2017,09,30,08,16,00,321.2,,,,,,,,,,,,,,
2017,09,30,08,17,00,336.4,,,,,,,,,,,,,,
2017,09,30,08,18,00,347.0,,,,,,,,,,,,,,
2017,09,30,08,19,00,337.6,,,,,,,,,,,,,,
2017,09,30,08,20,00,339.6,,,,,,,,,,,,,,
2017,09,30,08,21,00,336.6,,,,,,,,,,,,,,
2017,09,30,08,22,00,339.2,,,,,,,,,,,,,,
2017,09,30,08,23,00,345.6,,,,,,,,,,,,,,
2017,09,30,08,24,00,342.6,,,,,,,,,,,,,,
2017,09,30,08,25,00,339.8,,,,,,,,,,,,,,
2017,09,30,08,26,00,335.9,,,,,,,,,,,,,,
2017,09,30,08,27,00,333.8,,,,,,,,,,,,,,
2017,09,30,08,28,00,337.8,,,,,,,,,,,,,,
2017,09,30,08,29,00,335.9,,,,,,,,,,,,,,
2017,09,30,08,30,00,337.1,,,,,,,,,,,,,,
2017,09,30,08,31,00,337.8,,,,,,,,,,,,,,
2017,09,30,08,32,00,337.8,,,,,,,,,,,,,,
2017,09,30,08,33,00,350.7,,,,,,,,,,,,,,
2017,09,30,08,34,00,374.5,,,,,,,,,,,,,,
2017,09,30,08,35,00,362.6,,,,,,,,,,,,,,
2017,09,30,08,36,00,378.7,,,,,,,,,,,,,,
2017,09,30,08,37,00,361.1,,,,,,,,,,,,,,
2017,09,30,08,38,00,337.9,,,,,,,,,,,,,,
2017,09,30,08,39,00,331.2,,,,,,,,,,,,,,
2017,09,30,08,40,00,329.0,,,,,,,,,,,,,,
2017,09,30,08,41,00,323.5,,,,,,,,,,,,,,
2017,09,30,08,42,00,320.1,,,,,,,,,,,,,,
2017,09,30,08,43,00,331.3,,,,,,,,,,,,,,
2017,09,30,08,44,00,330.8,,,,,,,,,,,,,,
2017,09,30,08,45,00,340.5,,,,,,,,,,,,,,
2017,09,30,08,46,00,342.7,,,,,,,,,,,,,,
2017,09,30,08,47,00,368.3,,,,,,,,,,,,,,
2017,09,30,08,48,00,384.2,,,,,,,,,,,,,,
2017,09,30,08,49,00,380.0,,,,,,,,,,,,,,
2017,09,30,08,50,00,366.1,,,,,,,,,,,,,,
2017,09,30,08,51,00,313.7,,,,,,,,,,,,,,
2017,09,30,08,52,00,363.5,,,,,,,,,,,,,,
2017,09,30,08,53,00,424.4,,,,,,,,,,,,,,
2017,09,30,08,54,00,436.3,,,,,,,,,,,,,,
2017,09,30,08,55,00,422.3,,,,,,,,,,,,,,
2017,09,30,08,56,00,381.2,,,,,,,,,,,,,,
2017,09,30,08,57,00,351.5,,,,,,,,,,,,,,
2017,09,30,08,58,00,359.7,,,,,,,,,,,,,,
2017,09,30,08,59,00,339.1,,,,,,,,,,,,,,
2017,09,30,09,00,00,335.0,,,,,,,,,,,,,,
2017,09,30,09,01,00,338.4,,,,,,,,,,,,,,
2017,09,30,09,02,00,335.9,,,,,,,,,,,,,,
2017,09,30,09,03,00,327.3,,,,,,,,,,,,,,
2017,09,30,09,04,00,321.0,,,,,,,,,,,,,,
2017,09,30,09,05,00,326.5,,,,,,,,,,,,,,
2017,09,30,09,06,00,295.6,,,,,,,,,,,,,,
2017,09,30,09,07,00,291.4,,,,,,,,,,,,,,
2017,09,30,09,08,00,357.2,,,,,,,,,,,,,,
2017,09,30,09,09,00,350.9,,,,,,,,,,,,,,
2017,09,30,09,10,00,338.9,,,,,,,,,,,,,,
2017,09,30,09,11,00,342.3,,,,,,,,,,,,,,
2017,09,30,09,12,00,355.6,,,,,,,,,,,,,,
2017,09,30,09,13,00,334.7,,,,,,,,,,,,,,
2017,09,30,09,14,00,404.9,,,,,,,,,,,,,,
2017,09,30,09,15,00,390.8,,,,,,,,,,,,,,
2017,09,30,09,16,00,436.2,,,,,,,,,,,,,,
2017,09,30,09,17,00,422.9,,,,,,,,,,,,,,
2017,09,30,09,18,00,350.0,,,,,,,,,,,,,,
2017,09,30,09,19,00,349.9,,,,,,,,,,,,,,
2017,09,30,09,20,00,363.4,,,,,,,,,,,,,,
2017,09,30,09,21,00,405.8,,,,,,,,,,,,,,
2017,09,30,09,22,00,445.5,,,,,,,,,,,,,,
2017,09,30,09,23,00,456.2,,,,,,,,,,,,,,
2017,09,30,09,24,00,466.1,,,,,,,,,,,,,,
2017,09,30,09,25,00,482.6,,,,,,,,,,,,,,
2017,09,30,09,26,00,450.9,,,,,,,,,,,,,,
2017,09,30,09,27,00,431.3,,,,,,,,,,,,,,
2017,09,30,09,28,00,397.9,,,,,,,,,,,,,,
2017,09,30,09,29,00,376.1,,,,,,,,,,,,,,
2017,09,30,09,30,00,374.9,,,,,,,,,,,,,,
2017,09,30,09,31,00,347.2,,,,,,,,,,,,,,
2017,09,30,09,32,00,339.6,,,,,,,,,,,,,,
2017,09,30,09,33,00,361.8,,,,,,,,,,,,,,
2017,09,30,09,34,00,350.4,,,,,,,,,,,,,,
2017,09,30,09,35,00,365.9,,,,,,,,,,,,,,
2017,09,30,09,36,00,378.2,,,,,,,,,,,,,,
2017,09,30,09,37,00,362.1,,,,,,,,,,,,,,
2017,09,30,09,38,00,331.7,,,,,,,,,,,,,,
2017,09,30,09,39,00,320.8,,,,,,,,,,,,,,
2017,09,30,09,40,00,321.8,,,,,,,,,,,,,,
2017,09,30,09,41,00,313.0,,,,,,,,,,,,,,
2017,09,30,09,42,00,299.6,,,,,,,,,,,,,,
2017,09,30,09,43,00,299.6,,,,,,,,,,,,,,
2017,09,30,09,44,00,311.3,,,,,,,,,,,,,,